TimePST,TemperatureF,Dew PointF,Humidity,Sea Level PressureIn,VisibilityMPH,Wind Direction,Wind SpeedMPH,Gust SpeedMPH,PrecipitationIn,Events,Conditions,WindDirDegrees,DateUTC
12:56 AM,69.1,30.0,23,29.87,10.0,NW,3.5,-,N/A,,Clear,320,2012-11-08 08:56:00
1:56 AM,68.0,30.0,24,29.86,10.0,NW,5.8,-,N/A,,Clear,310,2012-11-08 09:56:00
2:56 AM,69.1,30.0,23,29.86,10.0,WNW,11.5,-,N/A,,Clear,300,2012-11-08 10:56:00
3:08 AM,-9999,-9999,N/A,-9999,-9999.0,North,-9999.0,-,N/A,,Unknown,0,2012-11-08 11:08:00
3:56 AM,73.9,36.0,25,29.87,10.0,WSW,23.0,-,N/A,,Clear,250,2012-11-08 11:56:00
4:56 AM,73.0,34.0,24,29.88,10.0,West,20.7,-,N/A,,Clear,260,2012-11-08 12:56:00
5:56 AM,72.0,33.1,24,29.90,10.0,NW,10.4,-,N/A,,Clear,310,2012-11-08 13:56:00
6:37 AM,71.6,37.4,29,29.87,10.0,West,6.9,-,0.00,Rain,Light Rain,280,2012-11-08 14:37:00
6:56 AM,72.0,37.9,29,29.93,10.0,West,13.8,-,0.00,,Mostly Cloudy,260,2012-11-08 14:56:00
6:58 AM,71.6,37.4,29,29.88,2.0,West,13.8,-,N/A,,Mostly Cloudy,270,2012-11-08 14:58:00
7:12 AM,71.6,41.0,33,29.89,0.2,West,17.3,-,N/A,Fog,Fog,260,2012-11-08 15:12:00
7:26 AM,73.4,41.0,31,29.89,0.5,WNW,15.0,-,N/A,Fog,Fog,290,2012-11-08 15:26:00
7:33 AM,73.4,42.8,33,29.89,1.0,West,11.5,-,N/A,,Mist,270,2012-11-08 15:33:00
7:41 AM,73.4,44.6,36,29.89,2.0,West,10.4,-,N/A,,Mostly Cloudy,260,2012-11-08 15:41:00
7:56 AM,75.0,44.1,33,29.94,10.0,West,8.1,-,N/A,,Mostly Cloudy,260,2012-11-08 15:56:00
8:55 AM,-9999,-9999,N/A,-9999,-9999.0,North,-9999.0,-,N/A,,Unknown,0,2012-11-08 16:55:00
8:56 AM,73.9,50.0,43,29.93,10.0,WSW,5.8,-,0.00,Rain,Light Rain,240,2012-11-08 16:56:00
9:16 AM,75.2,50.0,41,29.88,10.0,SW,5.8,-,0.00,Rain,Light Rain,230,2012-11-08 17:16:00
9:31 AM,75.2,51.8,44,29.88,10.0,SSW,6.9,-,0.00,,Mostly Cloudy,210,2012-11-08 17:31:00
9:56 AM,75.0,51.1,43,29.91,10.0,SW,3.5,-,0.00,,Mostly Cloudy,230,2012-11-08 17:56:00
10:06 AM,75.2,51.8,44,29.86,10.0,WSW,4.6,-,0.00,Rain,Light Rain,240,2012-11-08 18:06:00
10:21 AM,75.2,51.8,44,29.85,10.0,Calm,Calm,-,0.00,,Mostly Cloudy,0,2012-11-08 18:21:00
10:56 AM,75.9,52.0,43,29.89,10.0,Calm,Calm,-,0.00,Rain,Light Rain,0,2012-11-08 18:56:00
11:56 AM,77.0,55.0,47,29.86,10.0,South,3.5,-,0.00,,Mostly Cloudy,180,2012-11-08 19:56:00
12:11 PM,75.2,57.2,53,29.81,10.0,South,11.5,19.6,0.00,Rain,Light Rain,170,2012-11-08 20:11:00
12:29 PM,77.0,53.6,44,29.80,10.0,South,12.7,-,0.00,,Mostly Cloudy,170,2012-11-08 20:29:00
12:56 PM,80.1,48.0,32,29.83,10.0,South,9.2,-,0.00,,Mostly Cloudy,170,2012-11-08 20:56:00
1:56 PM,79.0,48.0,34,29.83,10.0,SSE,12.7,-,N/A,,Mostly Cloudy,160,2012-11-08 21:56:00
2:03 PM,78.8,46.4,32,29.78,10.0,SSE,12.7,-,0.00,Rain,Light Rain,160,2012-11-08 22:03:00
2:23 PM,77.0,50.0,39,29.78,10.0,SSE,15.0,-,0.00,,Mostly Cloudy,160,2012-11-08 22:23:00
2:56 PM,79.0,46.9,32,29.82,10.0,SSE,12.7,-,0.00,,Mostly Cloudy,160,2012-11-08 22:56:00
3:56 PM,79.0,46.0,31,29.80,10.0,SSE,12.7,-,N/A,,Scattered Clouds,160,2012-11-08 23:56:00
4:56 PM,77.0,46.0,33,29.80,10.0,SW,5.8,-,N/A,,Scattered Clouds,220,2012-11-09 00:56:00
5:56 PM,73.0,53.1,49,29.83,10.0,West,23.0,-,N/A,,Partly Cloudy,270,2012-11-09 01:56:00
6:56 PM,72.0,51.1,48,29.82,10.0,West,31.1,38.0,N/A,,Partly Cloudy,260,2012-11-09 02:56:00
7:56 PM,71.1,48.0,44,29.84,10.0,WSW,31.1,38.0,N/A,,Partly Cloudy,250,2012-11-09 03:56:00
8:56 PM,69.1,48.0,47,29.84,10.0,West,31.1,40.3,N/A,,Partly Cloudy,260,2012-11-09 04:56:00
9:56 PM,68.0,48.9,50,29.85,10.0,West,21.9,32.2,N/A,,Partly Cloudy,270,2012-11-09 05:56:00
10:56 PM,66.9,48.9,52,29.84,10.0,West,20.7,26.5,N/A,,Partly Cloudy,260,2012-11-09 06:56:00
11:56 PM,66.9,48.9,52,29.84,10.0,SSW,19.6,24.2,N/A,,Clear,210,2012-11-09 07:56:00